Location: Saint Louis
(38.6272°N, 90.1978°W)
Time: 20:31:47
(UTC-05:00)

Hubble Space Telescope - Visible Passes

Search period start: 29 September 2016 00:00
Search period end: 09 October 2016 00:00
Orbit: 539 x 542 km, 28.5° (Epoch: 28 September)

Date Brightness Start Highest point End Pass type
(mag) Time Alt. Az. Time Alt. Az. Time Alt. Az.
05 Oct 3.1 20:15:30 10° S 20:16:23 12° S 20:16:23 12° S visible
06 Oct 2.9 20:05:04 10° SSW 20:07:14 14° SSE 20:07:14 14° SSE visible
07 Oct 2.7 19:54:49 10° SSW 19:57:23 16° S 19:58:02 15° SSE visible
08 Oct 2.7 19:44:40 10° SSW 19:47:27 17° S 19:48:47 15° SSE visible
